[[{"header":{"parameterUnit":"m.s-1","parameterCategory":1,"la1":30.2991,"la2":30.254,"lo1":-89.0895,"lo2":-89.0444,"dy":0.0017,"dx":0.0017,"nx":28,"ny":28,"refTime":"2023-09-13T09:00:00:Z","depth":0,"parameterNumber":2,"parameterNumberName":"U-component_of_WINDS"},"data":[0,0,0,0,0,0,0,0,0,0,0,0,0,0,0,0,0,0,0,0,0,0,0,0,0,0,0,0,0,0,0,0,0,0,0,0,0,0,0,0,0,0,0,0,0,0,0,0,0,0,0,0,0,0,0,0,0,0,1.3582,1.3584,0,1.3739,1.3741,1.3743,1.3769,1.3767,1.3766,1.3765,1.3932,1.3938,1.3944,0,0,0,0,0,0,0,0,0,0,0,0,0,1.3312,1.3316,1.3582,1.3584,1.3586,1.3739,1.3741,1.3743,1.3769,1.3767,1.3766,1.3764,1.393,1.3937,1.3944,0,0,0,0,0,0,0,0,0,0,0,0,0,1.3445,1.3318,1.3581,1.3617,1.3622,1.3738,1.3741,1.3744,1.3769,1.3767,1.3765,1.3763,1.3928,1.3937,1.3945,1.4039,0,0,1.3971,1.3975,0,0,0,0,0,0,0,0,1.3437,1.3455,1.361,1.3615,1.362,1.3732,1.3707,1.3843,1.377,1.3714,1.3765,1.3762,1.3868,1.3881,1.3915,1.4047,1.4054,1.3972,1.3977,1.3981,1.3983,0,0,0,0,0,0,0,1.3428,1.3448,1.3644,1.3612,1.3619,1.3628,1.3644,1.3733,1.3801,1.3718,1.3721,1.3738,1.387,1.3907,1.392,1.4057,1.3972,1.3979,1.3985,1.3988,1.4276,1.4279,0,0,0,0,0,0,1.3412,1.344,1.3639,1.3649,1.3522,1.3634,1.3653,1.3698,1.38,1.3813,1.374,1.3739,1.3893,1.3909,1.3926,1.4044,1.3981,1.3989,1.3994,1.4274,1.4277,1.428,0,0,0,0,0,0,1.3406,1.3429,1.3633,1.3545,1.3572,1.3641,1.3692,1.3703,1.3739,1.3816,1.3829,1.3765,1.3892,1.3913,1.4011,1.405,1.3993,1.4001,1.4271,1.4275,1.4278,1.4281,0,0,0,0,0,0,1.3398,1.3427,1.3461,1.3546,1.3576,1.3713,1.3694,1.3707,1.3753,1.3753,1.3842,1.3855,1.3892,1.3998,1.4019,1.4061,1.4007,1.4268,1.4273,1.4277,1.4278,1.4285,1.429,0,0,0,0,0,1.3388,1.3457,1.3463,1.3487,1.3621,1.3715,1.3733,1.3773,1.3756,1.3793,1.3843,1.3852,1.4042,1.4008,1.4032,1.4077,1.4265,1.4271,1.4277,1.4275,1.4283,1.429,0,0,0,0,0,0,1.3377,1.3469,1.3476,1.3574,1.3637,1.372,1.3767,1.378,1.385,1.3847,1.3895,1.3915,1.4011,1.4054,1.4013,1.4175,1.4153,1.4164,1.4143,1.4152,1.4158,1.4146,1.4015,0,0,0,0,0,1.3386,1.3453,1.353,1.3609,1.364,1.3698,1.374,1.3765,1.3833,1.386,1.3917,1.3984,1.4059,1.4108,1.4181,1.4284,1.4305,1.4327,1.4333,1.4338,1.4347,1.4408,1.4419,1.4298,1.4298,1.4298,0,0,1.3405,1.3463,1.3503,1.3608,1.3659,1.373,1.372,1.3795,1.3849,1.3872,1.3968,1.4012,1.409,1.4191,1.4239,1.423,1.4385,1.4345,1.4348,1.4355,1.4415,1.4426,1.4436,1.4302,1.4301,1.4301,0,0,1.3477,1.3526,1.3598,1.365,1.3727,1.3766,1.3783,1.3864,1.3894,1.399,1.401,1.4075,1.4203,1.4259,1.4304,1.4397,1.441,1.442,1.4453,1.4511,1.4521,1.4529,1.4565,1.4577,1.4429,1.4429,1.4429,0,1.3491,1.3596,1.3634,1.3709,1.3756,1.3778,1.3853,1.3902,1.4,1.4033,1.4021,1.4183,1.4237,1.4353,1.4376,1.4411,1.4434,1.4411,1.4516,1.4525,1.4534,1.4568,1.4581,1.4429,1.4429,1.4429,1.4429,0,1.3612,1.3685,1.3734,1.3827,1.3879,1.3953,1.4005,1.4054,1.4075,1.4115,1.4214,1.428,1.4368,1.4397,1.4418,1.4516,1.4509,1.4505,1.4485,1.4545,1.4579,1.4592,1.4431,1.443,1.443,1.443,0,0,1.3682,1.3794,1.3812,1.3855,1.3942,1.4001,1.4077,1.4161,1.4203,1.427,1.4338,1.4445,1.4443,1.4494,1.4522,1.4573,1.4646,1.4565,1.4567,1.4579,1.4761,1.4764,1.4779,1.4654,1.4657,1.4659,1.4756,0,1.3765,1.39,1.3937,1.4052,1.4122,1.4144,1.4212,1.4274,1.4314,1.4381,1.4426,1.4502,1.4493,1.4524,1.4575,1.4626,1.4684,1.462,1.472,1.4723,1.4701,1.4796,1.4799,1.4887,1.4769,1.4771,1.4772,0,1.388,1.3948,1.407,1.415,1.418,1.424,1.4321,1.4383,1.4455,1.4481,1.4538,1.4562,1.4645,1.4619,1.4736,1.4692,1.4735,1.4767,1.4771,1.4784,1.4753,1.4813,1.4916,1.4929,1.4793,1.4791,1.479,0,1.3922,1.4044,1.4133,1.4169,1.4263,1.4305,1.4347,1.4417,1.4465,1.4537,1.4569,1.465,1.4695,1.4758,1.4804,1.478,1.4919,1.4895,1.4945,1.4944,1.4975,1.4972,1.5087,1.4999,1.4999,1.4999,1.4998,0,1.4012,1.4086,1.4153,1.4208,1.4292,1.4335,1.4419,1.4462,1.4524,1.459,1.4615,1.4677,1.4732,1.4802,1.4839,1.4932,1.4952,1.4977,1.4986,1.4976,1.4973,1.5006,1.5002,1.5002,1.5001,1.5001,1.5,0,1.4073,1.412,1.4219,1.43,1.4323,1.4382,1.4453,1.4509,1.4549,1.4633,1.4655,1.472,1.4804,1.4855,1.4962,1.4986,1.509,1.5096,1.5065,1.507,1.5117,1.5113,1.5259,1.5282,1.5176,1.5177,1.5178,0,1.4128,1.4186,1.4273,1.4318,1.436,1.4432,1.4481,1.4526,1.4577,1.4664,1.4711,1.4795,1.4866,1.4999,1.5058,1.514,1.515,1.5196,1.5163,1.5151,1.5153,1.515,1.5157,1.5202,1.5203,1.5203,1.5204,0,1.4223,1.4243,1.4312,1.439,1.4448,1.4512,1.4576,1.4612,1.4669,1.4725,1.481,1.4865,1.4973,1.5058,1.5146,1.5192,1.5209,1.5213,1.523,1.5221,1.5201,1.5215,1.5082,1.521,1.521,1.5209,1.5209,1.5209,1.4284,1.4337,1.4407,1.4484,1.4536,1.4596,1.4653,1.47,1.4771,1.4862,1.4884,1.4974,1.5047,1.5166,1.5214,1.5287,1.528,1.5303,1.531,1.5315,1.5317,1.5188,1.5303,1.5303,1.5303,1.5303,1.5302,0,1.4382,1.4428,1.4498,1.4586,1.4647,1.4654,1.4726,1.4778,1.4856,1.4921,1.499,1.5089,1.5172,1.5236,1.5322,1.5368,1.5378,1.539,1.5388,1.5399,1.5317,1.5295,1.538,1.538,1.538,1.538,1.538,1.538,1.4439,1.453,1.4559,1.4677,1.4723,1.481,1.485,1.4906,1.4959,1.5068,1.5136,1.5177,1.5243,1.5334,1.5411,1.5428,1.546,1.547,1.5489,1.5412,1.5404,1.5396,1.5376,1.5476,1.5476,1.5565,1.5566,1.5566]},{"header":{"parameterUnit":"m.s-1","parameterCategory":1,"la1":30.2991,"la2":30.254,"lo1":-89.0895,"lo2":-89.0444,"dy":0.0017,"dx":0.0017,"nx":28,"ny":28,"refTime":"2023-09-13T09:00:00:Z","depth":0,"parameterNumber":3,"parameterNumberName":"V-component_of_WINDS"},"data":[0,0,0,0,0,0,0,0,0,0,0,0,0,0,0,0,0,0,0,0,0,0,0,0,0,0,0,0,0,0,0,0,0,0,0,0,0,0,0,0,0,0,0,0,0,0,0,0,0,0,0,0,0,0,0,0,0,0,-0.1176,-0.1175,0,-0.1106,-0.1106,-0.1105,-0.111,-0.1111,-0.1112,-0.1113,-0.1043,-0.104,-0.1037,0,0,0,0,0,0,0,0,0,0,0,0,0,-0.1317,-0.1315,-0.1176,-0.1175,-0.1174,-0.1106,-0.1106,-0.1105,-0.111,-0.1111,-0.1113,-0.1114,-0.1044,-0.104,-0.1037,0,0,0,0,0,0,0,0,0,0,0,0,0,-0.1253,-0.1314,-0.1176,-0.1169,-0.1168,-0.1107,-0.1105,-0.1104,-0.111,-0.1111,-0.1113,-0.1115,-0.1045,-0.1041,-0.1036,-0.0978,0,0,-0.1023,-0.1021,0,0,0,0,0,0,0,0,-0.1256,-0.1247,-0.1171,-0.1169,-0.1168,-0.1119,-0.1129,-0.1062,-0.1109,-0.1132,-0.1113,-0.1115,-0.1067,-0.1061,-0.1044,-0.0975,-0.0972,-0.1023,-0.102,-0.1018,-0.1017,0,0,0,0,0,0,0,-0.1261,-0.125,-0.1149,-0.117,-0.1168,-0.117,-0.1163,-0.1117,-0.1091,-0.113,-0.113,-0.1122,-0.1066,-0.1048,-0.1043,-0.0971,-0.1023,-0.1019,-0.1016,-0.1015,-0.0855,-0.0854,0,0,0,0,0,0,-0.1267,-0.1254,-0.1151,-0.1146,-0.1217,-0.1166,-0.1158,-0.1133,-0.1092,-0.1087,-0.1121,-0.1122,-0.1055,-0.1048,-0.104,-0.0973,-0.1018,-0.1014,-0.1012,-0.0857,-0.0855,-0.0853,0,0,0,0,0,0,-0.127,-0.1257,-0.1154,-0.12,-0.1187,-0.1162,-0.1134,-0.1131,-0.1113,-0.1085,-0.108,-0.1107,-0.1056,-0.1046,-0.0995,-0.097,-0.1012,-0.1008,-0.0859,-0.0856,-0.0854,-0.0836,0,0,0,0,0,0,-0.1274,-0.1258,-0.1235,-0.12,-0.1185,-0.1108,-0.1132,-0.1128,-0.1105,-0.1107,-0.1071,-0.1066,-0.1056,-0.1001,-0.099,-0.0965,-0.1005,-0.0861,-0.0858,-0.0855,-0.0838,-0.0833,-0.0828,0,0,0,0,0,-0.1279,-0.1232,-0.1234,-0.1221,-0.1155,-0.1107,-0.1098,-0.1088,-0.1103,-0.1081,-0.1063,-0.1067,-0.0974,-0.0996,-0.0984,-0.0957,-0.0863,-0.0859,-0.0855,-0.0841,-0.0834,-0.0828,0,0,0,0,0,0,-0.1264,-0.1227,-0.1229,-0.1169,-0.1141,-0.1108,-0.1079,-0.108,-0.1047,-0.105,-0.1039,-0.1031,-0.098,-0.0963,-0.0987,-0.0901,-0.0921,-0.0914,-0.0914,-0.0907,-0.0902,-0.0908,-0.1002,0,0,0,0,0,-0.1254,-0.1217,-0.1187,-0.1137,-0.1123,-0.1103,-0.1082,-0.1076,-0.1047,-0.1035,-0.1014,-0.0986,-0.0951,-0.0928,-0.0893,-0.0836,-0.083,-0.0812,-0.0807,-0.0802,-0.0798,-0.077,-0.0762,-0.0841,-0.0841,-0.0841,0,0,-0.1232,-0.1208,-0.1185,-0.1134,-0.1111,-0.1075,-0.1093,-0.1053,-0.1027,-0.1029,-0.098,-0.0964,-0.0932,-0.0878,-0.0853,-0.0862,-0.0775,-0.0798,-0.0795,-0.0792,-0.0765,-0.0758,-0.0751,-0.0838,-0.0839,-0.0839,0,0,-0.1176,-0.1152,-0.111,-0.1088,-0.1054,-0.1042,-0.1032,-0.0999,-0.0989,-0.0939,-0.0942,-0.091,-0.0849,-0.0828,-0.0808,-0.0747,-0.0751,-0.0736,-0.071,-0.0683,-0.0677,-0.0672,-0.0653,-0.0646,-0.0731,-0.0731,-0.0731,0,-0.1153,-0.1098,-0.1088,-0.1049,-0.1027,-0.1029,-0.0988,-0.0967,-0.0924,-0.091,-0.092,-0.0846,-0.0825,-0.0768,-0.0753,-0.0737,-0.0727,-0.0741,-0.0679,-0.0673,-0.0668,-0.065,-0.0643,-0.073,-0.073,-0.073,-0.073,0,-0.1075,-0.1036,-0.1006,-0.0967,-0.0942,-0.0901,-0.0887,-0.0863,-0.086,-0.0848,-0.0799,-0.0774,-0.0736,-0.0722,-0.0718,-0.0666,-0.0673,-0.0681,-0.0701,-0.0659,-0.0642,-0.0635,-0.0728,-0.0729,-0.0729,-0.0729,0,0,-0.1005,-0.0963,-0.0952,-0.0936,-0.09,-0.0871,-0.0832,-0.0796,-0.0778,-0.0749,-0.0718,-0.0667,-0.0676,-0.0655,-0.0649,-0.0625,-0.0582,-0.0637,-0.0636,-0.063,-0.0527,-0.0522,-0.0514,-0.0584,-0.0583,-0.0582,-0.053,0,-0.0948,-0.0879,-0.087,-0.0809,-0.0776,-0.0778,-0.0745,-0.0721,-0.0708,-0.0679,-0.0665,-0.0631,-0.0644,-0.0631,-0.0608,-0.0592,-0.0562,-0.0596,-0.0557,-0.0556,-0.0567,-0.0505,-0.0499,-0.0452,-0.0523,-0.0522,-0.0521,0,-0.087,-0.0841,-0.0777,-0.075,-0.0736,-0.0706,-0.0674,-0.0645,-0.0619,-0.0612,-0.059,-0.0588,-0.055,-0.0571,-0.052,-0.0544,-0.0527,-0.0518,-0.0516,-0.0513,-0.0537,-0.0503,-0.0436,-0.043,-0.051,-0.0511,-0.0512,0,-0.0831,-0.0775,-0.0731,-0.0716,-0.0682,-0.0662,-0.0647,-0.0622,-0.0602,-0.0574,-0.0562,-0.053,-0.0513,-0.0489,-0.048,-0.0495,-0.043,-0.045,-0.0426,-0.0426,-0.0413,-0.0414,-0.0345,-0.0399,-0.0399,-0.0399,-0.0399,0,-0.0768,-0.073,-0.0713,-0.0686,-0.0644,-0.0635,-0.0595,-0.0581,-0.0559,-0.0531,-0.053,-0.0504,-0.0492,-0.0464,-0.0456,-0.0418,-0.0409,-0.0404,-0.0403,-0.0405,-0.0406,-0.0396,-0.04,-0.0397,-0.0397,-0.0398,-0.0398,0,-0.0717,-0.0703,-0.0656,-0.0629,-0.0621,-0.0592,-0.057,-0.0545,-0.0533,-0.0498,-0.0489,-0.0472,-0.0439,-0.0427,-0.0387,-0.0383,-0.0339,-0.0339,-0.0348,-0.0348,-0.0326,-0.0329,-0.0249,-0.0239,-0.0297,-0.0297,-0.0296,0,-0.0679,-0.065,-0.062,-0.0602,-0.0587,-0.0556,-0.0536,-0.0527,-0.0507,-0.0477,-0.0456,-0.0424,-0.0398,-0.0347,-0.0331,-0.0302,-0.0303,-0.0277,-0.0298,-0.0303,-0.0306,-0.0309,-0.0307,-0.0274,-0.0273,-0.0272,-0.0272,0,-0.0614,-0.061,-0.0581,-0.0551,-0.0528,-0.0504,-0.0481,-0.0466,-0.0453,-0.0431,-0.0398,-0.0378,-0.0339,-0.0309,-0.0279,-0.0265,-0.0267,-0.0265,-0.0259,-0.0262,-0.027,-0.0268,-0.0339,-0.0267,-0.0268,-0.0268,-0.0268,-0.0269,-0.057,-0.0546,-0.0522,-0.0492,-0.0474,-0.0453,-0.0429,-0.0416,-0.0388,-0.0356,-0.0352,-0.0318,-0.0296,-0.0256,-0.0241,-0.0216,-0.0223,-0.0212,-0.021,-0.0208,-0.0208,-0.0272,-0.021,-0.021,-0.021,-0.021,-0.021,0,-0.0508,-0.0493,-0.0465,-0.0434,-0.041,-0.0414,-0.039,-0.037,-0.034,-0.0319,-0.0294,-0.0259,-0.023,-0.0213,-0.0184,-0.0167,-0.0168,-0.0161,-0.0163,-0.016,-0.0202,-0.0212,-0.0161,-0.0161,-0.0161,-0.0161,-0.0161,-0.0161,-0.0472,-0.0433,-0.0427,-0.0379,-0.0365,-0.0332,-0.0318,-0.03,-0.0283,-0.0244,-0.022,-0.0209,-0.0191,-0.0161,-0.0136,-0.0132,-0.0123,-0.0115,-0.0112,-0.0152,-0.0157,-0.0162,-0.0171,-0.0112,-0.0112,-0.0072,-0.0072,-0.0072]}]]